GW4712 Weather Reports


time (UTC)temp
F
wind
direction
speed
knots
gust
knots
rain 1hr
in
rain 24hr
in
rain mn
in
humidity
%
barometer
mb
20260904122100 71 206 0.0 0.0 0.00 0.00 0.00 99 1017.8
20260904121555 71 206 0.0 0.0 0.00 0.00 0.00 99 1018.0
20260904121051 70 206 0.0 0.0 0.00 0.00 0.00 99 1017.9
20260904120547 70 206 0.0 0.0 0.00 0.00 0.00 99 1017.9
20260904120043 70 206 0.0 0.0 0.00 0.00 0.00 99 1017.9
20260904115538 69 206 0.0 0.0 0.00 0.00 0.00 99 1018.0
20260904115032 69 206 0.0 0.0 0.00 0.00 0.00 99 1018.1
20260904114527 69 206 0.0 0.0 0.00 0.00 0.00 99 1018.0
20260904114022 69 206 0.0 0.0 0.00 0.00 0.00 99 1017.8
20260904113521 69 206 0.0 0.0 0.00 0.00 0.00 99 1018.0
20260904113016 69 206 0.0 0.0 0.00 0.00 0.00 99 1017.7
20260904112511 69 206 0.0 0.0 0.00 0.00 0.00 99 1017.9
20260904112007 69 102 0.0 0.0 0.00 0.00 0.00 99 1018.0
20260904111503 69 103 0.0 0.0 0.00 0.00 0.00 99 1017.8
20260904110958 69 102 0.0 0.0 0.00 0.00 0.00 99 1017.8
20260904110457 68 102 0.0 0.0 0.00 0.00 0.00 99 1017.8
20260904105952 69 47 0.0 0.0 0.00 0.00 0.00 99 1017.7
20260904105447 68 140 0.0 0.0 0.00 0.00 0.00 99 1017.5
20260904104942 68 140 0.0 0.0 0.00 0.00 0.00 99 1017.1
20260904104442 68 140 0.0 0.0 0.00 0.00 0.00 99 1017.3
20260904103933 68 140 0.0 0.0 0.00 0.00 0.00 99 1017.1
20260904103428 68 140 0.0 0.0 0.00 0.00 0.00 99 1017.3
20260904102924 68 140 0.0 0.0 0.00 0.00 0.00 99 1017.2
20260904102420 69 139 0.0 0.0 0.00 0.00 0.00 99 1017.2
20260904101915 69 139 0.0 0.0 0.00 0.00 0.00 99 1017.1
20260904101412 68 140 0.0 0.0 0.00 0.00 0.00 99 1017.2
20260904100907 68 140 0.0 0.0 0.00 0.00 0.00 99 1016.9
20260904100402 68 140 0.0 0.0 0.00 0.00 0.00 99 1016.9
20260904095857 68 140 0.0 0.0 0.00 0.00 0.00 99 1016.8
20260904095352 68 140 0.0 0.0 0.00 0.00 0.00 99 1016.7
20260904094847 68 140 0.0 0.0 0.00 0.00 0.00 99 1016.5
20260904094342 68 140 0.0 0.0 0.00 0.00 0.00 99 1016.8
20260904093838 69 140 0.0 0.0 0.00 0.00 0.00 99 1016.8
20260904093338 69 140 0.0 0.0 0.00 0.00 0.00 99 1016.8
20260904092833 69 140 0.0 0.0 0.00 0.00 0.00 99 1016.6
20260904092330 69 140 0.0 0.0 0.00 0.00 0.00 99 1016.4
20260904091826 69 140 0.0 0.0 0.00 0.00 0.00 99 1016.5
20260904091321 68 140 0.0 0.0 0.00 0.00 0.00 99 1016.6
20260904090816 69 140 0.0 0.0 0.00 0.00 0.00 99 1016.5
20260904090312 69 140 0.0 0.0 0.00 0.00 0.00 99 1016.6
20260904085807 69 140 0.0 0.0 0.00 0.00 0.00 99 1016.8
20260904085305 69 140 0.0 0.0 0.00 0.00 0.00 99 1016.7
20260904084756 69 140 0.0 0.0 0.00 0.00 0.00 99 1016.7
20260904084252 69 140 0.0 0.0 0.00 0.00 0.00 99 1016.8
20260904083748 69 140 0.0 0.0 0.00 0.00 0.00 99 1016.8
20260904083244 69 140 0.0 0.0 0.00 0.00 0.00 99 1016.4
20260904082739 69 140 0.0 0.0 0.00 0.00 0.00 99 1016.5
20260904082234 69 140 0.0 0.0 0.00 0.00 0.00 99 1016.5
20260904081729 69 140 0.0 0.0 0.00 0.00 0.00 99 1016.5
20260904081225 69 140 0.0 0.0 0.00 0.00 0.00 99 1016.3
20260904080721 69 140 0.0 0.0 0.00 0.00 0.00 99 1016.5
20260904080216 69 140 0.0 0.0 0.00 0.00 0.00 99 1016.5
20260904075712 69 140 0.0 0.0 0.00 0.00 0.00 99 1016.5
20260904075206 69 140 0.0 0.0 0.00 0.00 0.00 99 1016.4
20260904074700 70 140 0.0 0.0 0.00 0.00 0.00 99 1016.5
20260904074154 70 140 0.0 0.0 0.00 0.00 0.00 99 1016.3
20260904073650 70 140 0.0 0.0 0.00 0.00 0.00 99 1016.4
20260904073146 70 140 0.0 0.0 0.00 0.00 0.00 99 1016.4
20260904072641 70 140 0.0 0.0 0.00 0.00 0.00 99 1016.4
20260904072136 70 140 0.0 0.0 0.00 0.00 0.00 99 1016.3
20260904071626 70 140 0.0 0.0 0.00 0.00 0.00 99 1016.3
20260904071120 70 140 0.0 0.0 0.00 0.00 0.00 99 1016.5
20260904070614 70 140 0.0 0.0 0.00 0.00 0.00 99 1016.4
20260904070109 70 140 0.0 0.0 0.00 0.00 0.00 99 1016.4
20260904065604 70 140 0.0 0.0 0.00 0.00 0.00 99 1016.4
20260904065101 70 140 0.0 0.0 0.00 0.00 0.00 99 1016.3
20260904064556 70 140 0.0 0.0 0.00 0.00 0.00 99 1016.5
20260904064056 70 140 0.0 0.0 0.00 0.00 0.00 99 1016.5
20260904063552 70 140 0.0 0.0 0.00 0.00 0.00 99 1016.4
20260904063047 71 139 0.0 0.0 0.00 0.00 0.00 99 1016.5
20260904062544 71 139 0.0 0.0 0.00 0.00 0.00 99 1016.7
20260904062044 71 140 0.0 0.0 0.00 0.00 0.00 99 1016.5
20260904061540 71 140 0.0 0.0 0.00 0.00 0.00 99 1016.7
20260904061036 71 140 0.0 0.0 0.00 0.00 0.00 99 1016.8
20260904060532 71 88 0.0 0.0 0.00 0.00 0.00 98 1016.8
20260904060028 71 88 0.0 0.0 0.00 0.00 0.00 98 1016.8
20260904055523 71 88 0.0 0.0 0.00 0.00 0.00 98 1016.9
20260904055018 71 88 0.0 0.0 0.00 0.00 0.00 98 1016.9
20260904054514 71 88 0.0 0.0 0.00 0.00 0.00 98 1017.1
20260904054010 71 87 0.0 0.0 0.00 0.00 0.00 98 1017.0
20260904053509 72 87 0.0 0.0 0.00 0.00 0.00 97 1017.2
20260904053004 72 87 0.0 0.0 0.00 0.00 0.00 97 1017.1
20260904052501 72 87 0.0 0.0 0.00 0.00 0.00 97 1017.2
20260904051956 72 88 0.0 0.0 0.00 0.00 0.00 97 1017.2
20260904051453 72 87 0.0 0.0 0.00 0.00 0.00 97 1017.2
20260904050952 72 88 0.0 0.0 0.00 0.00 0.00 97 1017.5
20260904050448 72 87 0.0 0.0 0.00 0.00 0.00 97 1017.2
20260904045943 73 87 0.0 0.0 0.00 0.00 0.00 96 1017.4
20260904045438 73 87 0.0 0.0 0.00 0.00 0.00 95 1017.5
20260904044933 73 82 0.0 0.0 0.00 0.00 0.00 95 1017.3
20260904044429 73 29 0.0 0.0 0.00 0.00 0.00 95 1017.6
20260904043925 74 27 0.0 0.0 0.00 0.00 0.00 94 1017.7
20260904043422 74 27 0.0 0.0 0.00 0.00 0.00 94 1017.9
20260904042917 74 27 0.0 0.0 0.00 0.00 0.00 92 1017.9
20260904042412 75 27 0.0 0.0 0.00 0.00 0.00 91 1017.7
20260904041907 75 27 0.0 0.0 0.00 0.00 0.00 90 1017.6
20260904041358 76 27 0.0 0.0 0.00 0.00 0.00 89 1017.6
20260904040854 76 27 0.0 0.0 0.00 0.00 0.00 88 1017.6
20260904040348 76 26 0.0 0.0 0.00 0.00 0.00 87 1017.6
20260904035845 76 26 0.0 0.0 0.00 0.00 0.00 87 1017.5
20260904035341 77 26 0.0 0.0 0.00 0.00 0.00 86 1017.6
20260904034839 77 26 0.0 0.0 0.00 0.00 0.00 85 1017.7
20260904034335 77 46 0.0 0.0 0.00 0.00 0.00 85 1017.4
20260904033831 78 89 0.0 0.0 0.00 0.00 0.00 85 1017.5
20260904033327 78 48 0.0 0.0 0.00 0.00 0.00 86 1017.4
20260904032823 79 348 0.0 0.0 0.00 0.00 0.00 85 1017.3
20260904032322 79 18 0.0 0.0 0.00 0.00 0.00 85 1017.4
20260904031817 79 356 0.0 0.0 0.00 0.00 0.00 89 1017.3
20260904031313 80 334 0.0 0.0 0.00 0.00 0.00 89 1017.1
20260904030808 80 21 0.0 0.0 0.00 0.00 0.00 87 1017.3
20260904030304 80 33 0.0 0.0 0.00 0.00 0.00 91 1017.3
20260904025800 77 318 0.0 0.0 0.00 0.00 0.00 98 1017.0
20260904025255 76 229 0.0 0.0 0.00 0.00 0.00 99 1017.3
20260904024749 76 229 0.0 0.0 0.00 0.00 0.00 99 1017.1
20260904024245 76 229 0.0 0.0 0.00 0.00 0.00 99 1017.0
20260904023741 76 229 0.0 0.0 0.00 0.00 0.00 99 1016.8
20260904023237 76 229 0.0 0.0 0.00 0.00 0.00 99 1016.9
20260904022736 77 229 0.0 0.0 0.00 0.00 0.00 99 1016.9
20260904022233 76 229 0.0 0.0 0.00 0.00 0.00 99 1017.0
20260904021729 76 229 0.0 0.0 0.00 0.00 0.00 99 1017.0
20260904021229 77 229 0.0 0.0 0.00 0.00 0.00 99 1016.9
20260904020725 77 229 0.0 0.0 0.00 0.00 0.00 99 1016.7
20260904020225 77 229 0.0 0.0 0.00 0.00 0.00 99 1016.7
20260904015723 77 229 0.0 0.0 0.00 0.00 0.00 99 1016.8
20260904015219 77 229 0.0 0.0 0.00 0.00 0.00 99 1017.0
20260904014717 77 229 0.0 0.0 0.00 0.00 0.00 99 1016.7
20260904014212 77 229 0.0 0.0 0.00 0.00 0.00 99 1016.7
20260904013704 77 229 0.0 0.0 0.00 0.00 0.00 99 1016.5
20260904013159 77 229 0.0 0.0 0.00 0.00 0.00 98 1016.4
20260904012655 78 229 0.0 0.0 0.00 0.00 0.00 98 1016.6
20260904012154 78 229 0.0 0.0 0.00 0.00 0.00 98 1016.6
20260904011653 78 229 0.0 0.0 0.00 0.00 0.00 98 1016.5
20260904011149 78 229 0.0 0.0 0.00 0.00 0.00 98 1016.4
20260904010644 78 229 0.0 0.0 0.00 0.00 0.00 98 1016.4
20260904010140 78 229 0.0 0.0 0.00 0.00 0.00 98 1016.3
20260904005635 78 229 0.0 0.0 0.00 0.00 0.00 97 1016.1
20260904005131 78 229 0.0 0.0 0.00 0.00 0.00 97 1016.4
20260904004626 78 229 0.0 0.0 0.00 0.00 0.00 97 1016.3
20260904004125 79 229 0.0 0.0 0.00 0.00 0.00 97 1016.5
20260904003622 79 229 0.0 0.0 0.00 0.00 0.00 97 1016.4
20260904003117 79 229 0.0 0.0 0.00 0.00 0.00 96 1016.4
20260904002613 79 229 0.0 0.0 0.00 0.00 0.00 96 1016.4
20260904002108 79 229 0.0 0.0 0.00 0.00 0.00 96 1016.2
20260904001603 79 229 0.0 0.0 0.00 0.00 0.00 96 1016.2
20260904001102 80 229 0.0 0.0 0.00 0.00 0.00 96 1016.1
20260904000556 80 229 0.0 0.0 0.00 0.00 0.00 95 1016.2
20260904000053 80 229 0.0 0.0 0.00 0.00 0.00 95 1016.3
20260903235553 80 229 0.0 0.0 0.00 0.00 0.00 94 1016.2
20260903235049 81 229 0.0 0.0 0.00 0.00 0.00 94 1016.3
20260903234544 81 229 0.0 0.0 0.00 0.00 0.00 93 1016.3
20260903234039 82 229 0.0 0.0 0.00 0.00 0.00 92 1016.4
20260903233535 82 229 0.0 0.0 0.00 0.00 0.00 92 1016.4
20260903233031 83 229 0.0 0.0 0.00 0.00 0.00 90 1016.4
20260903232526 83 229 0.0 0.0 0.00 0.00 0.00 89 1016.6
20260903232021 84 230 0.0 0.0 0.00 0.00 0.00 88 1016.6
20260903231515 85 230 0.0 0.0 0.00 0.00 0.00 86 1016.4
20260903231010 85 230 0.0 0.0 0.00 0.00 0.00 86 1016.3
20260903230506 85 230 0.0 0.0 0.00 0.00 0.00 86 1016.2
20260903230003 85 230 0.0 0.0 0.00 0.00 0.00 85 1016.2
20260903225457 85 230 0.0 0.0 0.00 0.00 0.00 84 1016.3
20260903224954 86 230 0.0 0.0 0.00 0.00 0.00 83 1015.9
20260903224449 87 230 0.0 0.0 0.00 0.00 0.00 79 1015.8
20260903223945 88 230 0.0 0.0 0.00 0.00 0.00 79 1015.9
20260903223444 88 231 0.0 0.0 0.00 0.00 0.00 77 1015.7
20260903222943 89 230 0.0 0.0 0.00 0.00 0.00 77 1015.8
20260903222438 89 231 0.0 0.0 0.00 0.00 0.00 75 1015.7
20260903221937 90 248 0.0 0.0 0.00 0.00 0.00 74 1015.7
20260903221432 91 249 0.0 0.0 0.00 0.00 0.00 71 1015.5
20260903220929 91 249 0.0 0.0 0.00 0.00 0.00 70 1015.6
20260903220424 91 249 0.0 0.0 0.00 0.00 0.00 73 1015.5
20260903215921 91 250 0.0 0.0 0.00 0.00 0.00 66 1015.1
20260903215419 92 244 0.0 0.0 0.00 0.00 0.00 65 1015.1
20260903214916 92 243 0.0 0.0 0.00 0.00 0.00 65 1015.2
20260903214413 92 250 0.0 0.0 0.00 0.00 0.00 65 1015.2
20260903213912 92 262 0.0 0.0 0.00 0.00 0.00 66 1015.1
20260903213408 92 261 0.0 0.0 0.00 0.00 0.00 64 1015.2
20260903212904 92 302 0.0 0.0 0.00 0.00 0.00 64 1015.1
20260903212359 92 295 0.0 0.0 0.00 0.00 0.00 62 1014.9
20260903211859 92 251 0.0 0.0 0.00 0.00 0.00 64 1014.8
20260903211354 92 226 0.0 0.0 0.00 0.00 0.00 64 1015.2
20260903210850 92 260 0.0 0.0 0.00 0.00 0.00 61 1014.9
20260903210345 92 252 0.0 0.0 0.00 0.00 0.00 61 1015.1
20260903205844 92 240 0.0 0.0 0.00 0.00 0.00 63 1015.5
20260903205344 92 247 0.0 0.9 0.00 0.00 0.00 62 1015.4
20260903204839 92 245 0.0 0.0 0.00 0.00 0.00 64 1015.6
20260903204335 92 168 0.0 0.0 0.00 0.00 0.00 61 1015.3
20260903203751 93 254 0.0 0.0 0.00 0.00 0.00 60 1016.0
20260903203247 93 254 0.0 0.0 0.00 0.00 0.00 60 1016.0
20260903202745 93 250 0.0 0.0 0.00 0.00 0.00 61 1016.1
20260903202242 93 306 0.0 0.0 0.00 0.00 0.00 63 1015.9
20260903201741 92 256 0.0 0.0 0.00 0.00 0.00 61 1016.0
20260903201236 93 254 0.0 0.9 0.00 0.00 0.00 61 1016.3
20260903200735 93 257 0.0 0.0 0.00 0.00 0.00 60 1016.3
20260903200231 93 190 0.0 0.0 0.00 0.00 0.00 59 1016.3
20260903195726 94 247 0.0 0.0 0.00 0.00 0.00 61 1016.3
20260903195222 93 234 0.0 0.0 0.00 0.00 0.00 61 1016.7
20260903194722 93 307 0.0 0.0 0.00 0.00 0.00 59 1016.4
20260903194218 93 261 0.0 0.9 0.00 0.00 0.00 60 1016.7
20260903193713 93 261 0.0 0.0 0.00 0.00 0.00 60 1016.6
20260903193208 93 251 0.0 0.0 0.00 0.00 0.00 63 1016.6
20260903192704 92 306 0.0 0.0 0.00 0.00 0.00 64 1016.7
20260903192200 92 242 0.0 0.0 0.00 0.00 0.00 62 1016.9
20260903191656 93 271 0.0 0.0 0.00 0.00 0.00 62 1016.8
20260903191155 93 270 0.0 0.0 0.00 0.00 0.00 61 1016.6
20260903190650 92 242 0.0 0.0 0.00 0.00 0.00 62 1016.8
20260903190145 93 303 0.0 0.0 0.00 0.00 0.00 61 1016.8
20260903185640 92 303 0.0 0.0 0.00 0.00 0.00 67 1017.1
20260903185135 92 0 0.0 0.0 0.00 0.00 0.00 63 1017.1
20260903184631 92 305 0.0 0.0 0.00 0.00 0.00 67 1017.2
20260903184127 92 304 0.0 0.0 0.00 0.00 0.00 65 1017.4
20260903183625 90 242 0.0 0.0 0.00 0.00 0.00 66 1017.5
20260903183121 91 253 0.0 0.0 0.00 0.00 0.00 66 1017.6
20260903182620 91 253 0.0 0.0 0.00 0.00 0.00 64 1017.5
20260903182116 91 293 0.0 0.0 0.00 0.00 0.00 67 1017.6
20260903181614 92 237 0.0 0.0 0.00 0.00 0.00 64 1017.4
20260903181108 92 253 0.0 0.0 0.00 0.00 0.00 65 1017.5
20260903180604 92 352 0.0 0.0 0.00 0.00 0.00 66 1017.5
20260903180058 91 290 0.0 0.0 0.00 0.00 0.00 64 1017.7
20260903175557 91 255 0.0 0.0 0.00 0.00 0.00 65 1017.7
20260903175052 92 303 0.0 0.0 0.00 0.00 0.00 66 1017.7
20260903174552 91 268 0.0 0.0 0.00 0.00 0.00 73 1017.6
20260903174047 91 176 0.0 0.9 0.00 0.00 0.00 68 1017.8
20260903173541 91 279 0.0 0.0 0.00 0.00 0.00 66 1017.9
20260903173038 91 249 0.0 0.0 0.00 0.00 0.00 67 1017.8
20260903172532 90 224 0.0 0.0 0.00 0.00 0.00 68 1017.9
20260903172028 91 244 0.0 0.0 0.00 0.00 0.00 68 1017.9
20260903171523 90 11 0.0 0.0 0.00 0.00 0.00 70 1017.9
20260903171018 90 308 0.0 0.0 0.00 0.00 0.00 70 1018.0
20260903170517 90 301 0.0 0.0 0.00 0.00 0.00 68 1018.1
20260903170013 90 308 0.0 0.9 0.00 0.00 0.00 69 1018.1
20260903165510 90 264 0.0 0.0 0.00 0.00 0.00 71 1018.0
20260903165006 89 202 0.0 0.0 0.00 0.00 0.00 69 1018.3
20260903164455 89 234 0.0 0.0 0.00 0.00 0.00 68 1018.3
20260903163956 89 246 0.0 0.0 0.00 0.00 0.00 67 1018.3
20260903163451 89 358 0.0 0.0 0.00 0.00 0.00 70 1018.1
20260903162947 90 287 0.0 0.0 0.00 0.00 0.00 70 1018.2
20260903162443 89 249 0.0 0.0 0.00 0.00 0.00 71 1018.2
20260903161938 89 247 0.0 0.9 0.00 0.00 0.00 70 1018.5
20260903161434 89 299 0.0 0.0 0.00 0.00 0.00 70 1018.2
20260903160930 89 289 0.0 0.0 0.00 0.00 0.00 73 1018.4
20260903160429 88 246 0.0 0.0 0.00 0.00 0.00 71 1018.7
20260903155928 88 286 0.0 0.0 0.00 0.00 0.00 72 1018.4
20260903155423 88 286 0.0 0.0 0.00 0.00 0.00 74 1018.6
20260903154919 88 264 0.0 0.0 0.00 0.00 0.00 75 1018.5
20260903154414 88 161 0.0 0.0 0.00 0.00 0.00 73 1018.6
20260903153914 87 234 0.0 0.0 0.00 0.00 0.00 74 1018.7
20260903153410 87 242 0.0 0.0 0.00 0.00 0.00 72 1018.5
20260903152906 87 274 0.0 0.0 0.00 0.00 0.00 75 1018.5
20260903152401 87 175 0.0 0.0 0.00 0.00 0.00 76 1018.8
20260903151857 87 304 0.0 0.0 0.00 0.00 0.00 77 1018.7
20260903151352 86 269 0.0 0.0 0.00 0.00 0.00 77 1018.8
20260903150852 86 275 0.0 0.0 0.00 0.00 0.00 77 1018.7
20260903150347 86 244 0.0 0.0 0.00 0.00 0.00 76 1018.7
20260903145841 85 248 0.0 0.0 0.00 0.00 0.00 78 1018.8
20260903145337 85 274 0.0 0.0 0.00 0.00 0.00 78 1018.7
20260903144836 85 163 0.0 0.0 0.00 0.00 0.00 78 1018.8
20260903144331 85 152 0.0 0.0 0.00 0.00 0.00 80 1018.7
20260903143826 84 171 0.0 0.0 0.00 0.00 0.00 81 1018.7
20260903143323 84 205 0.0 0.0 0.00 0.00 0.00 81 1018.7
20260903142819 84 246 0.0 0.0 0.00 0.00 0.00 81 1018.8
20260903142315 84 155 0.0 0.0 0.00 0.00 0.00 80 1018.7
20260903141810 83 117 0.0 0.0 0.00 0.00 0.00 83 1018.8
20260903141306 82 138 0.0 0.0 0.00 0.00 0.00 84 1018.7
20260903140806 82 137 0.0 0.0 0.00 0.00 0.00 86 1018.8
20260903140301 82 137 0.0 0.0 0.00 0.00 0.00 84 1018.7
20260903135756 82 137 0.0 0.0 0.00 0.00 0.00 87 1018.6
20260903135252 81 137 0.0 0.0 0.00 0.00 0.00 87 1018.5
20260903134750 81 136 0.0 0.0 0.00 0.00 0.00 87 1018.5
20260903134247 80 136 0.0 0.0 0.00 0.00 0.00 91 1018.8
20260903133743 80 159 0.0 0.0 0.00 0.00 0.00 90 1018.6
20260903133240 80 159 0.0 0.0 0.00 0.00 0.00 92 1018.7
20260903132735 79 161 0.0 0.0 0.00 0.00 0.00 93 1018.9
20260903132229 79 161 0.0 0.0 0.00 0.00 0.00 93 1018.9
20260903131724 78 161 0.0 0.0 0.00 0.00 0.00 93 1018.8
20260903131218 78 161 0.0 0.0 0.00 0.00 0.00 94 1019.1
20260903130714 77 161 0.0 0.0 0.00 0.00 0.00 95 1019.2
20260903130214 76 161 0.0 0.0 0.00 0.00 0.00 96 1019.3
20260903125712 75 162 0.0 0.0 0.00 0.00 0.00 98 1019.3
20260903125207 74 163 0.0 0.0 0.00 0.00 0.00 97 1019.3
20260903124706 74 163 0.0 0.0 0.00 0.00 0.00 98 1018.9
20260903124201 73 162 0.0 0.0 0.00 0.00 0.00 99 1019.1
20260903123701 73 162 0.0 0.0 0.00 0.00 0.00 99 1019.1
20260903123200 73 162 0.0 0.0 0.00 0.00 0.00 99 1019.3
20260903122659 73 163 0.0 0.0 0.00 0.00 0.00 99 1019.5